sat.trackr.live / text

‹ back to catalog

COSMOS 2541 (EKS 3)

NORAD 44552 · 2019-065A

PAYLOAD ACTIVE UNKNOWN

§ Identity

Operator
Country
CIS
Launch date
2019-09-26
Launch site
PLMSC
Launch vehicle
Mass (kg)
RCS (m²)

External: N2YO · Heavens-Above · Gunter

§ Orbital elements

Epoch: 2026-09-14T00:08:51.715968Z

Period
717.92 min
Inclination
62.7132°
Eccentricity
0.6508130
Mean motion
2.00578682 rev/d
Perigee alt
2,895.9 km
Apogee alt
37,465.8 km
Semi-major
26,559.0 km
B*
0.0000e+0
RAAN
148.6622°
Arg perigee
272.0599°
Mean anomaly
20.2644°
Rev number
5,100

§ Raw data

COSMOS 2541 (EKS 3)1 44552U 19065A   26257.00615412  .00000115  00000+0  00000+0 0  99972 44552  62.7132 148.6622 6508130 272.0599  20.2644  2.00578682 51001

JSON: /api/v1/satellites/44552 · /tle

For live sub-satellite position, see the globe view (requires WebGL).

§ Visibility from observer

Set your observer location to see the next 7 days of passes ≥ 10°. The values pass through the URL so the page stays shareable.

No JS? Fill the form by hand. The geolocation button needs JavaScript.